When you browse on this site, cookies collect data to enhance your experience and personalize the content and advertising you see.
Visit our Privacy Policy to learn more. By continuing to use the site, you agree to this use of cookies and data.
  • In Latvia
  • List of Countries
  • For 7 days
  • Water Temperature
  • Weather Map
  • Weather Widgets
  • user-avatar
    Login

    Hourly Weather Cardiff

    Today, 18 September, Wednesday

    Time Temperature Precipitation Wind Pressure Humidity
    00:00 +8°C° 0 mm 4 mps 769 mmHg 82%
    01:00 +9°C° 0 mm 3 mps 769 mmHg 84%
    02:00 +9°C° 0 mm 3 mps 769 mmHg 86%
    03:00 +9°C° 0 mm 3 mps 769 mmHg 88%
    04:00 +8°C° 0 mm 3 mps 769 mmHg 89%
    05:00 +8°C° 0 mm 2 mps 769 mmHg 90%
    06:00 +8°C° 0 mm 2 mps 770 mmHg 89%
    07:00 +10°C° 0 mm 2 mps 770 mmHg 84%
    08:00 +13°C° 0 mm 2 mps 770 mmHg 78%
    09:00 +14°C° 0 mm 1 mps 770 mmHg 73%
    10:00 +16°C° 0 mm 1 mps 770 mmHg 69%
    11:00 +18°C° 0 mm 1 mps 770 mmHg 64%
    12:00 +19°C° 0 mm 1 mps 770 mmHg 60%
    13:00 +19°C° 0 mm 1 mps 770 mmHg 60%
    14:00 +20°C° 0 mm 1 mps 770 mmHg 60%
    15:00 +20°C° 0 mm 1 mps 770 mmHg 60%
    16:00 +19°C° 0 mm 1 mps 770 mmHg 66%
    17:00 +16°C° 0 mm 1 mps 770 mmHg 72%
    18:00 +15°C° 0 mm 1 mps 770 mmHg 78%
    19:00 +14°C° 0 mm 1 mps 770 mmHg 80%
    20:00 +14°C° 0 mm 1 mps 770 mmHg 82%
    21:00 +13°C° 0 mm 1 mps 771 mmHg 84%
    22:00 +13°C° 0 mm 2 mps 771 mmHg 85%
    23:00 +12°C° 0 mm 2 mps 771 mmHg 85%

    Tomorrow, 19 September, Thursday

    Time Temperature Precipitation Wind Pressure Humidity
    00:00 +12°C° 0 mm 2 mps 771 mmHg 86%
    01:00 +12°C° 0 mm 2 mps 771 mmHg 86%
    02:00 +10°C° 0 mm 2 mps 771 mmHg 85%
    03:00 +10°C° 0 mm 2 mps 771 mmHg 85%
    04:00 +10°C° 0 mm 2 mps 771 mmHg 84%
    05:00 +10°C° 0 mm 2 mps 771 mmHg 84%
    06:00 +10°C° 0 mm 2 mps 770 mmHg 83%
    07:00 +12°C° 0 mm 2 mps 771 mmHg 78%
    08:00 +14°C° 0 mm 2 mps 771 mmHg 74%
    09:00 +16°C° 0 mm 2 mps 771 mmHg 69%
    10:00 +17°C° 0 mm 2 mps 771 mmHg 66%
    11:00 +18°C° 0 mm 2 mps 771 mmHg 63%
    12:00 +19°C° 0 mm 2 mps 771 mmHg 60%
    13:00 +19°C° 0 mm 2 mps 771 mmHg 59%
    14:00 +20°C° 0 mm 2 mps 770 mmHg 59%
    15:00 +20°C° 0 mm 2 mps 770 mmHg 59%
    16:00 +19°C° 0 mm 2 mps 770 mmHg 65%
    17:00 +18°C° 0 mm 2 mps 770 mmHg 70%
    18:00 +16°C° 0 mm 2 mps 769 mmHg 76%
    19:00 +15°C° 0 mm 2 mps 769 mmHg 78%
    20:00 +15°C° 0 mm 2 mps 770 mmHg 80%
    21:00 +13°C° 0 mm 3 mps 770 mmHg 83%
    22:00 +12°C° 0 mm 3 mps 769 mmHg 85%
    23:00 +13°C° 0 mm 2 mps 769 mmHg 87%

    Day after tomorrow, 20 September, Friday

    Time Temperature Precipitation Wind Pressure Humidity
    00:00 +12°C° 0 mm 2 mps 769 mmHg 89%
    01:00 +11°C° 0 mm 3 mps 769 mmHg 89%
    02:00 +11°C° 0 mm 3 mps 768 mmHg 89%
    03:00 +10°C° 0 mm 3 mps 768 mmHg 90%
    04:00 +10°C° 0 mm 4 mps 768 mmHg 91%
    05:00 +10°C° 0 mm 4 mps 767 mmHg 92%
    06:00 +8°C° 0 mm 4 mps 767 mmHg 93%
    07:00 +10°C° 0 mm 5 mps 767 mmHg 86%
    08:00 +13°C° 0 mm 5 mps 766 mmHg 79%
    09:00 +14°C° 0 mm 6 mps 766 mmHg 72%
    10:00 +15°C° 0 mm 6 mps 766 mmHg 67%
    11:00 +16°C° 0 mm 6 mps 765 mmHg 62%
    12:00 +17°C° 0 mm 7 mps 764 mmHg 57%
    13:00 +18°C° 0 mm 7 mps 764 mmHg 55%
    14:00 +18°C° 0 mm 7 mps 763 mmHg 54%
    15:00 +20°C° 0 mm 7 mps 762 mmHg 52%
    16:00 +17°C° 0 mm 7 mps 761 mmHg 55%
    17:00 +16°C° 0 mm 6 mps 761 mmHg 58%
    18:00 +15°C° 0 mm 6 mps 760 mmHg 61%
    19:00 +14°C° 0 mm 6 mps 760 mmHg 60%
    20:00 +14°C° 0 mm 6 mps 760 mmHg 59%
    21:00 +12°C° 0 mm 7 mps 760 mmHg 58%
    22:00 +13°C° 0 mm 6 mps 759 mmHg 61%
    23:00 +11°C° 0 mm 6 mps 758 mmHg 65%

    21 September, Saturday

    Time Temperature Precipitation Wind Pressure Humidity
    00:00 +11°C° 0 mm 6 mps 758 mmHg 68%
    01:00 +11°C° 0 mm 6 mps 757 mmHg 71%
    02:00 +10°C° 0 mm 6 mps 757 mmHg 74%
    03:00 +10°C° 0 mm 5 mps 756 mmHg 76%
    04:00 +10°C° 0 mm 5 mps 755 mmHg 78%
    05:00 +10°C° 0 mm 5 mps 755 mmHg 79%
    06:00 +10°C° 0 mm 5 mps 754 mmHg 80%
    07:00 +12°C° 0 mm 5 mps 754 mmHg 78%
    08:00 +14°C° 0 mm 5 mps 754 mmHg 75%
    09:00 +15°C° 0 mm 6 mps 753 mmHg 73%
    10:00 +17°C° 0 mm 6 mps 753 mmHg 72%
    11:00 +20°C° 0 mm 6 mps 753 mmHg 71%
    12:00 +22°C° 0 mm 7 mps 752 mmHg 69%
    13:00 +22°C° 0 mm 7 mps 752 mmHg 70%
    14:00 +22°C° 0 mm 8 mps 751 mmHg 71%
    15:00 +23°C° 0 mm 8 mps 751 mmHg 72%
    16:00 +22°C° 0.2 mm 7 mps 750 mmHg 75%
    17:00 +21°C° 0.2 mm 6 mps 750 mmHg 79%
    18:00 +20°C° 0.2 mm 6 mps 750 mmHg 83%
    19:00 +19°C° 0.4 mm 5 mps 750 mmHg 85%
    20:00 +19°C° 0.4 mm 5 mps 750 mmHg 88%
    21:00 +17°C° 0.4 mm 5 mps 750 mmHg 91%
    22:00 +18°C° 0.5 mm 4 mps 749 mmHg 93%
    23:00 +18°C° 0.5 mm 4 mps 749 mmHg 94%

    22 September, Sunday

    Time Temperature Precipitation Wind Pressure Humidity
    00:00 +18°C° 0.5 mm 3 mps 749 mmHg 96%
    01:00 +17°C° 0.3 mm 4 mps 749 mmHg 96%
    02:00 +17°C° 0.3 mm 4 mps 749 mmHg 96%
    03:00 +17°C° 0.3 mm 4 mps 749 mmHg 96%
    04:00 +16°C° 0.3 mm 5 mps 749 mmHg 95%
    05:00 +15°C° 0.3 mm 5 mps 749 mmHg 94%
    06:00 +15°C° 0.3 mm 6 mps 749 mmHg 93%
    07:00 +15°C° 0.1 mm 6 mps 749 mmHg 90%
    08:00 +16°C° 0.1 mm 6 mps 749 mmHg 86%
    09:00 +16°C° 0.1 mm 6 mps 749 mmHg 83%
    10:00 +17°C° 0.1 mm 6 mps 750 mmHg 79%
    11:00 +17°C° 0.1 mm 6 mps 750 mmHg 76%
    12:00 +19°C° 0.1 mm 6 mps 750 mmHg 73%
    13:00 +17°C° 0.2 mm 8 mps 750 mmHg 75%
    14:00 +17°C° 0.2 mm 9 mps 751 mmHg 76%
    15:00 +16°C° 0.2 mm 11 mps 751 mmHg 78%
    16:00 +14°C° 0 mm 10 mps 751 mmHg 78%
    17:00 +13°C° 0 mm 9 mps 752 mmHg 79%
    18:00 +12°C° 0 mm 7 mps 753 mmHg 79%
    19:00 +12°C° 0 mm 7 mps 753 mmHg 82%
    20:00 +11°C° 0 mm 6 mps 754 mmHg 84%
    21:00 +12°C° 0 mm 5 mps 755 mmHg 86%
    22:00 +12°C° 0 mm 5 mps 755 mmHg 88%
    23:00 +10°C° 0 mm 5 mps 755 mmHg 89%

    23 September, Monday

    Time Temperature Precipitation Wind Pressure Humidity
    00:00 +11°C° 0 mm 4 mps 755 mmHg 91%
    01:00 +11°C° 0 mm 4 mps 755 mmHg 91%
    02:00 +12°C° 0 mm 4 mps 755 mmHg 91%
    03:00 +12°C° 0 mm 4 mps 755 mmHg 91%
    04:00 +12°C° 0.1 mm 4 mps 755 mmHg 92%
    05:00 +13°C° 0.1 mm 4 mps 754 mmHg 92%
    06:00 +13°C° 0.1 mm 5 mps 754 mmHg 92%
    07:00 +13°C° 1.3 mm 6 mps 754 mmHg 93%
    08:00 +14°C° 1.3 mm 6 mps 753 mmHg 95%
    09:00 +14°C° 1.3 mm 7 mps 753 mmHg 96%
    10:00 +15°C° 1.2 mm 7 mps 752 mmHg 96%
    11:00 +16°C° 1.2 mm 7 mps 752 mmHg 96%
    12:00 +16°C° 1.2 mm 7 mps 751 mmHg 96%
    13:00 +17°C° 0.6 mm 7 mps 751 mmHg 96%
    14:00 +17°C° 0.6 mm 7 mps 751 mmHg 96%
    15:00 +18°C° 0.6 mm 7 mps 751 mmHg 95%
    16:00 +18°C° 0.9 mm 7 mps 751 mmHg 96%
    17:00 +18°C° 0.9 mm 7 mps 751 mmHg 96%
    18:00 +18°C° 0.9 mm 7 mps 751 mmHg 96%
    19:00 +17°C° 0.3 mm 7 mps 752 mmHg 96%
    20:00 +17°C° 0.3 mm 7 mps 752 mmHg 95%
    21:00 +17°C° 0.3 mm 7 mps 753 mmHg 95%
    22:00 +17°C° 0.1 mm 6 mps 753 mmHg 96%
    23:00 +17°C° 0.1 mm 5 mps 753 mmHg 96%
    Show more